QPF
0.01 0.01 0.01 0.00 0.00 0.00 0.00 0.00 0.00 0.00 0.00 0.00 0.00 0.00 0.00 0.00 0.00 0.00 0.00 0.00 0.00 0.00 0.01 0.03 0.05 0.06 0.05 0.04 0.03 0.01 0.01 0.01 0.01 0.01 0.01 0.01 0.01 0.00 0.01 0.01 0.01 0.01 0.01 0.01 0.01 0.02 0.01 0.00 0.00
0.01 0.01 0.01 0.01 0.00 0.00 0.00 0.00 0.00 0.00 0.00 0.00 0.00 0.00 0.00 0.00 0.00 0.00 0.00 0.00 0.00 0.00 0.01 0.02 0.04 0.05 0.06 0.04 0.03 0.02 0.02 0.01 0.01 0.01 0.01 0.01 0.01 0.01 0.01 0.02 0.02 0.01 0.01 0.02 0.01 0.01 0.01 0.01 0.01
0.01 0.01 0.01 0.01 0.00 0.00 0.00 0.00 0.00 0.00 0.00 0.00 0.00 0.00 0.00 0.00 0.00 0.00 0.01 0.01 0.00 0.00 0.01 0.02 0.04 0.04 0.05 0.05 0.04 0.03 0.03 0.03 0.03 0.02 0.02 0.01 0.01 0.01 0.01 0.01 0.01 0.01 0.01 0.02 0.02 0.01 0.01 0.01 0.01
0.01 0.02 0.01 0.01 0.00 0.00 0.00 0.00 0.00 0.00 0.00 0.00 0.00 0.00 0.00 0.00 0.00 0.00 0.00 0.00 0.00 0.01 0.01 0.02 0.04 0.06 0.05 0.05 0.05 0.04 0.04 0.04 0.04 0.03 0.03 0.02 0.02 0.02 0.02 0.01 0.01 0.01 0.01 0.01 0.02 0.01 0.01 0.01 0.01
0.02 0.02 0.01 0.00 0.00 0.00 0.00 0.00 0.00 0.00 0.00 0.00 0.00 0.00 0.00 0.00 0.00 0.00 0.00 0.00 0.00 0.01 0.01 0.01 0.04 0.07 0.06 0.05 0.05 0.05 0.04 0.05 0.06 0.05 0.04 0.03 0.03 0.03 0.02 0.01 0.01 0.00 0.00 0.00 0.01 0.02 0.01 0.01 0.01
0.03 0.02 0.01 0.00 0.00 0.00 0.00 0.00 0.00 0.00 0.00 0.00 0.00 0.00 0.00 0.01 0.01 0.01 0.01 0.01 0.01 0.01 0.01 0.02 0.04 0.06 0.08 0.08 0.06 0.06 0.05 0.06 0.07 0.07 0.07 0.06 0.05 0.04 0.03 0.01 0.01 0.00 0.00 0.01 0.01 0.02 0.02 0.02 0.02
0.04 0.01 0.00 0.00 0.00 0.00 0.00 0.00 0.00 0.00 0.00 0.00 0.00 0.00 0.00 0.00 0.01 0.01 0.01 0.01 0.01 0.02 0.01 0.02 0.03 0.03 0.05 0.08 0.07 0.06 0.06 0.06 0.06 0.06 0.06 0.06 0.07 0.06 0.05 0.02 0.02 0.01 0.01 0.01 0.02 0.02 0.02 0.02 0.02
0.04 0.01 0.00 0.00 0.00 0.00 0.00 0.00 0.00 0.00 0.00 0.00 0.00 0.00 0.00 0.00 0.00 0.00 0.01 0.01 0.01 0.02 0.02 0.02 0.03 0.03 0.02 0.04 0.06 0.06 0.06 0.05 0.04 0.04 0.03 0.03 0.03 0.04 0.05 0.03 0.02 0.02 0.02 0.01 0.01 0.02 0.02 0.02 0.02
0.04 0.01 0.00 0.00 0.00 0.00 0.00 0.00 0.00 0.00 0.00 0.00 0.00 0.00 0.00 0.00 0.00 0.00 0.00 0.01 0.01 0.01 0.01 0.02 0.03 0.03 0.03 0.03 0.06 0.05 0.06 0.06 0.04 0.03 0.02 0.02 0.02 0.02 0.02 0.02 0.01 0.01 0.01 0.01 0.01 0.01 0.02 0.02 0.01
0.04 0.01 0.01 0.00 0.00 0.00 0.00 0.00 0.00 0.00 0.00 0.00 0.00 0.00 0.00 0.00 0.00 0.00 0.00 0.00 0.00 0.00 0.00 0.01 0.02 0.03 0.04 0.04 0.05 0.05 0.04 0.04 0.05 0.04 0.03 0.02 0.02 0.02 0.02 0.02 0.02 0.02 0.01 0.01 0.02 0.02 0.02 0.01 0.00
0.03 0.01 0.01 0.00 0.00 0.00 0.00 0.00 0.00 0.00 0.00 0.00 0.00 0.00 0.00 0.00 0.00 0.00 0.00 0.00 0.00 0.00 0.00 0.01 0.02 0.02 0.04 0.05 0.05 0.06 0.05 0.04 0.05 0.04 0.03 0.03 0.03 0.02 0.02 0.02 0.01 0.02 0.01 0.01 0.01 0.02 0.02 0.01 0.01
0.02 0.01 0.01 0.00 0.00 0.00 0.00 0.00 0.00 0.00 0.00 0.00 0.00 0.00 0.00 0.00 0.00 0.00 0.00 0.00 0.00 0.00 0.00 0.00 0.01 0.02 0.03 0.05 0.07 0.06 0.07 0.06 0.05 0.05 0.04 0.03 0.03 0.02 0.02 0.02 0.02 0.01 0.01 0.00 0.00 0.01 0.01 0.01 0.01
0.02 0.02 0.02 0.00 0.00 0.00 0.00 0.00 0.00 0.00 0.00 0.00 0.00 0.00 0.00 0.00 0.00 0.00 0.00 0.00 0.00 0.00 0.00 0.00 0.00 0.01 0.02 0.04 0.06 0.07 0.07 0.06 0.05 0.04 0.04 0.03 0.03 0.03 0.03 0.02 0.02 0.02 0.01 0.01 0.01 0.00 0.00 0.01 0.01
0.03 0.02 0.02 0.01 0.00 0.00 0.00 0.00 0.00 0.00 0.00 0.00 0.00 0.00 0.00 0.00 0.00 0.00 0.00 0.00 0.00 0.00 0.00 0.00 0.00 0.01 0.01 0.02 0.03 0.05 0.06 0.06 0.06 0.05 0.04 0.04 0.04 0.04 0.04 0.04 0.04 0.02 0.02 0.02 0.01 0.01 0.01 0.01 0.01
0.02 0.02 0.02 0.01 0.00 0.00 0.00 0.00 0.00 0.00 0.00 0.00 0.00 0.00 0.00 0.00 0.00 0.00 0.00 0.00 0.00 0.00 0.00 0.00 0.00 0.00 0.00 0.01 0.01 0.03 0.03 0.04 0.05 0.06 0.07 0.06 0.05 0.05 0.05 0.05 0.04 0.04 0.04 0.03 0.02 0.02 0.02 0.02 0.01
0.03 0.02 0.02 0.02 0.01 0.00 0.00 0.00 0.00 0.00 0.00 0.00 0.00 0.00 0.00 0.00 0.00 0.00 0.00 0.00 0.00 0.00 0.00 0.00 0.00 0.00 0.00 0.00 0.01 0.02 0.02 0.03 0.04 0.05 0.06 0.09 0.08 0.06 0.07 0.06 0.05 0.06 0.06 0.05 0.04 0.03 0.02 0.02 0.02
0.02 0.02 0.02 0.02 0.01 0.00 0.00 0.00 0.00 0.00 0.00 0.00 0.00 0.00 0.00 0.00 0.00 0.00 0.00 0.00 0.00 0.00 0.00 0.00 0.00 0.00 0.00 0.01 0.01 0.01 0.01 0.01 0.02 0.03 0.04 0.06 0.07 0.08 0.07 0.08 0.09 0.10 0.10 0.08 0.07 0.04 0.03 0.03 0.03
0.02 0.01 0.01 0.01 0.01 0.00 0.00 0.00 0.00 0.00 0.00 0.00 0.00 0.00 0.00 0.00 0.00 0.00 0.00 0.00 0.00 0.00 0.00 0.00 0.00 0.00 0.00 0.00 0.00 0.00 0.00 0.01 0.01 0.01 0.02 0.03 0.04 0.06 0.07 0.07 0.08 0.11 0.12 0.11 0.10 0.07 0.05 0.04 0.05
0.01 0.01 0.00 0.00 0.00 0.00 0.00 0.00 0.00 0.00 0.00 0.00 0.00 0.00 0.00 0.00 0.00 0.00 0.00 0.00 0.00 0.00 0.00 0.00 0.00 0.00 0.00 0.00 0.00 0.00 0.00 0.01 0.01 0.01 0.01 0.02 0.03 0.05 0.07 0.09 0.10 0.10 0.12 0.12 0.12 0.11 0.08 0.06 0.07
0.01 0.01 0.01 0.00 0.00 0.00 0.00 0.00 0.00 0.00 0.00 0.00 0.00 0.00 0.00 0.00 0.00 0.00 0.00 0.00 0.00 0.00 0.00 0.00 0.00 0.00 0.00 0.00 0.00 0.00 0.00 0.01 0.01 0.01 0.01 0.02 0.02 0.03 0.05 0.07 0.11 0.12 0.14 0.15 0.15 0.15 0.13 0.10 0.09
0.01 0.01 0.01 0.01 0.00 0.00 0.00 0.00 0.00 0.00 0.00 0.00 0.00 0.00 0.00 0.00 0.00 0.00 0.00 0.00 0.00 0.00 0.00 0.00 0.00 0.00 0.00 0.00 0.01 0.01 0.01 0.01 0.01 0.02 0.02 0.01 0.01 0.02 0.03 0.04 0.06 0.08 0.11 0.16 0.17 0.18 0.19 0.17 0.14
0.01 0.01 0.01 0.01 0.01 0.01 0.00 0.00 0.00 0.00 0.00 0.00 0.00 0.00 0.00 0.00 0.00 0.00 0.00 0.00 0.00 0.00 0.00 0.00 0.00 0.00 0.00 0.00 0.01 0.01 0.01 0.01 0.01 0.02 0.02 0.02 0.02 0.02 0.03 0.04 0.04 0.06 0.07 0.10 0.16 0.17 0.17 0.19 0.19
0.01 0.00 0.00 0.01 0.01 0.01 0.00 0.00 0.00 0.00 0.00 0.00 0.00 0.00 0.00 0.00 0.00 0.00 0.00 0.00 0.00 0.00 0.00 0.00 0.00 0.00 0.00 0.00 0.01 0.01 0.02 0.03 0.02 0.02 0.03 0.03 0.03 0.04 0.04 0.04 0.05 0.07 0.08 0.10 0.14 0.18 0.18 0.19 0.20
0.01 0.01 0.01 0.01 0.01 0.01 0.01 0.00 0.00 0.00 0.00 0.00 0.00 0.00 0.00 0.00 0.00 0.00 0.00 0.00 0.00 0.00 0.01 0.01 0.00 0.01 0.01 0.01 0.01 0.02 0.02 0.03 0.03 0.03 0.03 0.03 0.03 0.03 0.05 0.06 0.06 0.06 0.07 0.08 0.10 0.13 0.16 0.17 0.16
0.00 0.00 0.01 0.01 0.01 0.01 0.01 0.00 0.00 0.00 0.00 0.00 0.00 0.00 0.00 0.00 0.00 0.00 0.00 0.00 0.00 0.00 0.00 0.01 0.01 0.01 0.02 0.02 0.02 0.03 0.05 0.04 0.04 0.03 0.03 0.02 0.02 0.03 0.03 0.03 0.05 0.06 0.06 0.07 0.07 0.08 0.09 0.12 0.15
0.00 0.00 0.00 0.00 0.00 0.00 0.00 0.00 0.00 0.00 0.00 0.00 0.00 0.00 0.00 0.00 0.00 0.00 0.00 0.00 0.00 0.00 0.01 0.01 0.01 0.02 0.04 0.04 0.03 0.05 0.07 0.07 0.06 0.05 0.04 0.03 0.03 0.03 0.03 0.03 0.03 0.05 0.07 0.07 0.07 0.07 0.08 0.09 0.11
0.00 0.00 0.00 0.00 0.00 0.00 0.00 0.00 0.00 0.00 0.00 0.00 0.00 0.00 0.00 0.00 0.00 0.00 0.00 0.01 0.00 0.01 0.01 0.01 0.01 0.02 0.03 0.03 0.05 0.06 0.09 0.08 0.06 0.06 0.05 0.05 0.05 0.04 0.04 0.03 0.03 0.04 0.05 0.05 0.07 0.07 0.08 0.08 0.09
0.00 0.00 0.00 0.00 0.00 0.00 0.00 0.00 0.00 0.00 0.00 0.00 0.00 0.00 0.00 0.00 0.00 0.00 0.00 0.01 0.01 0.01 0.01 0.01 0.01 0.02 0.02 0.03 0.05 0.09 0.10 0.10 0.08 0.07 0.07 0.05 0.04 0.05 0.05 0.04 0.03 0.03 0.03 0.04 0.07 0.09 0.08 0.07 0.07
0.00 0.00 0.00 0.00 0.00 0.01 0.01 0.00 0.00 0.00 0.00 0.00 0.00 0.00 0.00 0.01 0.01 0.00 0.00 0.00 0.01 0.01 0.01 0.01 0.01 0.02 0.02 0.03 0.05 0.05 0.05 0.07 0.08 0.06 0.06 0.04 0.03 0.03 0.03 0.03 0.03 0.03 0.03 0.03 0.04 0.06 0.08 0.07 0.07
0.00 0.00 0.00 0.01 0.01 0.01 0.01 0.01 0.00 0.00 0.00 0.00 0.00 0.00 0.00 0.00 0.01 0.00 0.00 0.01 0.01 0.01 0.02 0.02 0.02 0.02 0.02 0.02 0.03 0.03 0.03 0.02 0.03 0.02 0.02 0.02 0.02 0.02 0.02 0.03 0.03 0.03 0.03 0.05 0.06 0.05 0.06 0.08 0.08
MSLP
1013.07 1013.83 1014.74 1015.69 1016.53 1017.14 1017.46 1017.47 1017.24 1016.88 1016.53 1016.31 1016.29 1016.47 1016.79 1017.15 1017.39 1017.43 1017.19 1016.70 1016.02 1015.28 1014.60 1014.10 1013.85 1013.85 1014.05 1014.37 1014.72 1015.02 1015.23 1015.35 1015.41 1015.47 1015.56 1015.71 1015.92 1016.14 1016.36 1016.52 1016.61 1016.64 1016.62 1016.61 1016.63 1016.71 1016.86 1017.04 1017.23
1013.43 1014.25 1015.18 1016.09 1016.84 1017.33 1017.50 1017.38 1017.03 1016.59 1016.19 1015.96 1015.94 1016.14 1016.49 1016.88 1017.16 1017.23 1017.03 1016.58 1015.95 1015.25 1014.62 1014.14 1013.90 1013.90 1014.09 1014.39 1014.71 1015.00 1015.22 1015.36 1015.46 1015.55 1015.68 1015.85 1016.07 1016.29 1016.49 1016.64 1016.71 1016.72 1016.70 1016.69 1016.72 1016.81 1016.97 1017.17 1017.37
1013.79 1014.64 1015.54 1016.36 1016.99 1017.35 1017.40 1017.18 1016.78 1016.32 1015.93 1015.72 1015.73 1015.96 1016.32 1016.70 1016.98 1017.05 1016.87 1016.45 1015.87 1015.23 1014.65 1014.23 1014.02 1014.02 1014.19 1014.46 1014.75 1015.01 1015.21 1015.34 1015.45 1015.56 1015.70 1015.88 1016.09 1016.31 1016.50 1016.62 1016.69 1016.69 1016.68 1016.68 1016.73 1016.84 1017.01 1017.23 1017.46
1014.14 1014.97 1015.79 1016.50 1017.01 1017.24 1017.21 1016.95 1016.55 1016.13 1015.80 1015.65 1015.71 1015.96 1016.31 1016.66 1016.91 1016.95 1016.77 1016.38 1015.85 1015.28 1014.77 1014.40 1014.23 1014.24 1014.38 1014.60 1014.84 1015.04 1015.19 1015.29 1015.38 1015.48 1015.62 1015.80 1016.00 1016.21 1016.38 1016.50 1016.56 1016.57 1016.58 1016.60 1016.68 1016.82 1017.02 1017.26 1017.51
1014.45 1015.24 1015.97 1016.55 1016.93 1017.07 1016.98 1016.72 1016.38 1016.05 1015.83 1015.77 1015.89 1016.16 1016.49 1016.80 1016.98 1016.98 1016.78 1016.40 1015.93 1015.43 1015.00 1014.70 1014.56 1014.57 1014.67 1014.83 1014.98 1015.10 1015.18 1015.23 1015.27 1015.35 1015.47 1015.64 1015.83 1016.03 1016.19 1016.31 1016.38 1016.41 1016.45 1016.51 1016.62 1016.79 1017.02 1017.28 1017.54
1014.73 1015.45 1016.08 1016.54 1016.81 1016.88 1016.77 1016.55 1016.30 1016.10 1016.01 1016.06 1016.25 1016.53 1016.83 1017.07 1017.19 1017.14 1016.91 1016.56 1016.14 1015.72 1015.37 1015.13 1015.01 1015.01 1015.06 1015.14 1015.19 1015.21 1015.20 1015.18 1015.17 1015.21 1015.31 1015.46 1015.64 1015.82 1015.99 1016.11 1016.19 1016.26 1016.32 1016.42 1016.58 1016.78 1017.03 1017.30 1017.56
1014.99 1015.64 1016.16 1016.52 1016.69 1016.71 1016.61 1016.45 1016.31 1016.24 1016.28 1016.44 1016.69 1016.99 1017.26 1017.45 1017.50 1017.40 1017.17 1016.84 1016.47 1016.13 1015.85 1015.66 1015.57 1015.53 1015.52 1015.50 1015.45 1015.37 1015.27 1015.17 1015.12 1015.12 1015.19 1015.33 1015.49 1015.67 1015.82 1015.95 1016.04 1016.13 1016.23 1016.36 1016.55 1016.78 1017.04 1017.32 1017.57
1015.24 1015.83 1016.26 1016.52 1016.63 1016.61 1016.52 1016.43 1016.39 1016.44 1016.60 1016.85 1017.15 1017.45 1017.70 1017.84 1017.84 1017.72 1017.48 1017.19 1016.88 1016.61 1016.39 1016.25 1016.15 1016.08 1016.01 1015.90 1015.75 1015.57 1015.38 1015.23 1015.13 1015.10 1015.16 1015.27 1015.42 1015.58 1015.72 1015.83 1015.93 1016.03 1016.15 1016.30 1016.51 1016.76 1017.03 1017.30 1017.54
1015.51 1016.05 1016.41 1016.60 1016.64 1016.60 1016.53 1016.48 1016.52 1016.66 1016.91 1017.22 1017.55 1017.86 1018.08 1018.19 1018.17 1018.03 1017.82 1017.57 1017.32 1017.10 1016.94 1016.81 1016.71 1016.60 1016.46 1016.27 1016.03 1015.78 1015.53 1015.33 1015.20 1015.16 1015.20 1015.29 1015.42 1015.54 1015.66 1015.75 1015.83 1015.92 1016.04 1016.20 1016.42 1016.67 1016.95 1017.21 1017.44
1015.82 1016.31 1016.62 1016.76 1016.76 1016.69 1016.62 1016.61 1016.69 1016.88 1017.17 1017.51 1017.86 1018.15 1018.36 1018.45 1018.43 1018.31 1018.12 1017.92 1017.72 1017.56 1017.42 1017.31 1017.19 1017.03 1016.82 1016.57 1016.27 1015.96 1015.67 1015.45 1015.30 1015.25 1015.27 1015.34 1015.43 1015.52 1015.60 1015.65 1015.70 1015.76 1015.86 1016.02 1016.23 1016.49 1016.76 1017.02 1017.25
1016.17 1016.64 1016.92 1017.02 1016.99 1016.90 1016.82 1016.80 1016.89 1017.09 1017.38 1017.72 1018.05 1018.34 1018.54 1018.63 1018.61 1018.52 1018.37 1018.21 1018.05 1017.92 1017.80 1017.67 1017.52 1017.32 1017.06 1016.75 1016.41 1016.06 1015.76 1015.52 1015.37 1015.31 1015.31 1015.35 1015.41 1015.45 1015.48 1015.48 1015.48 1015.51 1015.58 1015.72 1015.92 1016.17 1016.44 1016.71 1016.94
1016.56 1017.02 1017.28 1017.35 1017.30 1017.19 1017.09 1017.06 1017.12 1017.30 1017.56 1017.87 1018.18 1018.44 1018.63 1018.73 1018.73 1018.67 1018.56 1018.43 1018.29 1018.17 1018.04 1017.89 1017.69 1017.45 1017.14 1016.79 1016.42 1016.07 1015.75 1015.51 1015.36 1015.28 1015.26 1015.27 1015.29 1015.28 1015.25 1015.20 1015.16 1015.14 1015.18 1015.29 1015.47 1015.72 1015.99 1016.26 1016.51
1016.98 1017.43 1017.67 1017.74 1017.68 1017.55 1017.43 1017.37 1017.39 1017.52 1017.73 1017.99 1018.27 1018.51 1018.69 1018.79 1018.82 1018.78 1018.69 1018.58 1018.45 1018.31 1018.15 1017.95 1017.71 1017.42 1017.08 1016.71 1016.32 1015.96 1015.64 1015.40 1015.23 1015.14 1015.09 1015.06 1015.03 1014.98 1014.90 1014.81 1014.72 1014.67 1014.68 1014.76 1014.92 1015.15 1015.43 1015.71 1015.98
1017.41 1017.84 1018.08 1018.14 1018.08 1017.94 1017.81 1017.71 1017.69 1017.76 1017.91 1018.12 1018.35 1018.57 1018.75 1018.86 1018.90 1018.88 1018.81 1018.69 1018.54 1018.37 1018.16 1017.91 1017.62 1017.29 1016.92 1016.52 1016.13 1015.76 1015.44 1015.19 1015.00 1014.87 1014.78 1014.71 1014.64 1014.55 1014.44 1014.31 1014.20 1014.13 1014.11 1014.17 1014.31 1014.53 1014.80 1015.09 1015.38
1017.83 1018.23 1018.45 1018.52 1018.46 1018.33 1018.18 1018.06 1018.00 1018.02 1018.11 1018.27 1018.46 1018.66 1018.83 1018.95 1019.01 1019.00 1018.92 1018.79 1018.60 1018.37 1018.11 1017.80 1017.46 1017.09 1016.70 1016.30 1015.90 1015.53 1015.20 1014.92 1014.69 1014.52 1014.38 1014.27 1014.15 1014.03 1013.90 1013.77 1013.65 1013.57 1013.54 1013.58 1013.70 1013.89 1014.14 1014.43 1014.73
1018.24 1018.59 1018.79 1018.86 1018.81 1018.70 1018.55 1018.41 1018.31 1018.28 1018.32 1018.43 1018.59 1018.76 1018.93 1019.06 1019.13 1019.13 1019.04 1018.88 1018.65 1018.37 1018.04 1017.68 1017.30 1016.90 1016.49 1016.08 1015.68 1015.30 1014.95 1014.64 1014.37 1014.13 1013.94 1013.78 1013.63 1013.49 1013.35 1013.22 1013.11 1013.03 1013.00 1013.03 1013.12 1013.29 1013.51 1013.78 1014.08
1018.62 1018.91 1019.09 1019.16 1019.13 1019.03 1018.89 1018.74 1018.61 1018.53 1018.52 1018.58 1018.70 1018.86 1019.03 1019.17 1019.25 1019.25 1019.16 1018.97 1018.70 1018.37 1017.98 1017.57 1017.15 1016.73 1016.32 1015.91 1015.51 1015.12 1014.75 1014.39 1014.06 1013.77 1013.51 1013.29 1013.11 1012.95 1012.82 1012.71 1012.61 1012.54 1012.51 1012.53 1012.60 1012.73 1012.92 1013.16 1013.44
1018.97 1019.21 1019.37 1019.44 1019.44 1019.36 1019.22 1019.06 1018.89 1018.76 1018.69 1018.70 1018.78 1018.93 1019.09 1019.25 1019.35 1019.36 1019.27 1019.06 1018.76 1018.37 1017.94 1017.49 1017.04 1016.61 1016.19 1015.79 1015.40 1015.00 1014.60 1014.20 1013.81 1013.45 1013.13 1012.85 1012.63 1012.45 1012.32 1012.22 1012.14 1012.09 1012.05 1012.05 1012.10 1012.19 1012.34 1012.55 1012.80
1019.29 1019.49 1019.64 1019.73 1019.76 1019.70 1019.56 1019.37 1019.15 1018.96 1018.82 1018.76 1018.80 1018.92 1019.09 1019.26 1019.39 1019.43 1019.34 1019.13 1018.80 1018.39 1017.92 1017.43 1016.96 1016.52 1016.10 1015.71 1015.32 1014.92 1014.49 1014.05 1013.61 1013.18 1012.80 1012.46 1012.19 1011.99 1011.84 1011.74 1011.67 1011.61 1011.57 1011.56 1011.58 1011.64 1011.76 1011.93 1012.16
1019.59 1019.77 1019.94 1020.07 1020.13 1020.08 1019.93 1019.70 1019.41 1019.12 1018.89 1018.75 1018.73 1018.82 1018.99 1019.19 1019.36 1019.43 1019.37 1019.17 1018.83 1018.39 1017.89 1017.38 1016.89 1016.43 1016.02 1015.63 1015.25 1014.84 1014.41 1013.94 1013.45 1012.96 1012.50 1012.10 1011.78 1011.53 1011.35 1011.23 1011.14 1011.07 1011.02 1010.98 1010.97 1011.01 1011.10 1011.26 1011.47
1019.86 1020.07 1020.29 1020.47 1020.56 1020.53 1020.35 1020.05 1019.66 1019.25 1018.90 1018.66 1018.57 1018.63 1018.80 1019.02 1019.23 1019.36 1019.34 1019.16 1018.83 1018.38 1017.86 1017.32 1016.80 1016.33 1015.91 1015.53 1015.15 1014.75 1014.31 1013.81 1013.29 1012.75 1012.23 1011.76 1011.36 1011.05 1010.81 1010.64 1010.51 1010.41 1010.33 1010.27 1010.23 1010.25 1010.33 1010.48 1010.70
1020.11 1020.39 1020.69 1020.93 1021.07 1021.03 1020.81 1020.41 1019.90 1019.36 1018.86 1018.51 1018.33 1018.34 1018.50 1018.76 1019.03 1019.21 1019.25 1019.11 1018.80 1018.35 1017.81 1017.25 1016.70 1016.21 1015.78 1015.39 1015.01 1014.61 1014.17 1013.67 1013.11 1012.53 1011.96 1011.42 1010.94 1010.55 1010.23 1009.98 1009.78 1009.62 1009.49 1009.39 1009.34 1009.34 1009.42 1009.58 1009.81
1020.34 1020.71 1021.10 1021.43 1021.60 1021.56 1021.27 1020.77 1020.11 1019.41 1018.77 1018.28 1018.01 1017.97 1018.13 1018.42 1018.75 1019.00 1019.11 1019.03 1018.75 1018.31 1017.76 1017.17 1016.59 1016.07 1015.62 1015.22 1014.85 1014.45 1014.02 1013.51 1012.94 1012.33 1011.69 1011.09 1010.52 1010.03 1009.61 1009.26 1008.97 1008.73 1008.54 1008.40 1008.31 1008.31 1008.39 1008.57 1008.83
1020.54 1021.02 1021.52 1021.91 1022.11 1022.04 1021.68 1021.06 1020.26 1019.39 1018.60 1017.98 1017.62 1017.53 1017.69 1018.02 1018.41 1018.74 1018.92 1018.90 1018.67 1018.25 1017.70 1017.09 1016.50 1015.95 1015.48 1015.07 1014.69 1014.31 1013.88 1013.37 1012.80 1012.15 1011.48 1010.80 1010.15 1009.55 1009.02 1008.56 1008.16 1007.83 1007.56 1007.37 1007.25 1007.23 1007.32 1007.52 1007.81
1020.72 1021.31 1021.88 1022.33 1022.53 1022.42 1021.98 1021.24 1020.29 1019.27 1018.34 1017.61 1017.17 1017.05 1017.21 1017.57 1018.02 1018.42 1018.69 1018.74 1018.56 1018.18 1017.65 1017.04 1016.43 1015.87 1015.39 1014.97 1014.59 1014.21 1013.79 1013.30 1012.72 1012.06 1011.34 1010.61 1009.87 1009.18 1008.53 1007.96 1007.45 1007.03 1006.68 1006.42 1006.27 1006.23 1006.32 1006.53 1006.84
1020.88 1021.54 1022.16 1022.62 1022.80 1022.63 1022.09 1021.24 1020.16 1019.02 1017.98 1017.16 1016.66 1016.51 1016.68 1017.07 1017.57 1018.05 1018.39 1018.52 1018.41 1018.08 1017.59 1017.01 1016.41 1015.86 1015.37 1014.96 1014.58 1014.22 1013.81 1013.32 1012.74 1012.08 1011.33 1010.55 1009.75 1008.97 1008.23 1007.56 1006.96 1006.44 1006.02 1005.70 1005.51 1005.45 1005.53 1005.74 1006.06
1021.03 1021.71 1022.32 1022.75 1022.87 1022.62 1021.98 1021.03 1019.86 1018.63 1017.51 1016.64 1016.11 1015.94 1016.12 1016.54 1017.08 1017.62 1018.02 1018.22 1018.19 1017.93 1017.50 1016.97 1016.42 1015.89 1015.43 1015.04 1014.68 1014.33 1013.93 1013.46 1012.89 1012.22 1011.46 1010.65 1009.81 1008.97 1008.17 1007.42 1006.75 1006.17 1005.69 1005.33 1005.10 1005.01 1005.07 1005.27 1005.58
1021.16 1021.79 1022.34 1022.68 1022.70 1022.35 1021.63 1020.59 1019.37 1018.10 1016.95 1016.07 1015.53 1015.36 1015.54 1015.97 1016.54 1017.11 1017.57 1017.83 1017.87 1017.70 1017.35 1016.90 1016.42 1015.96 1015.54 1015.19 1014.86 1014.53 1014.15 1013.70 1013.14 1012.48 1011.73 1010.91 1010.05 1009.20 1008.36 1007.59 1006.88 1006.27 1005.76 1005.37 1005.12 1005.01 1005.05 1005.22 1005.50
1021.25 1021.78 1022.19 1022.39 1022.29 1021.83 1021.03 1019.95 1018.71 1017.45 1016.33 1015.47 1014.95 1014.80 1014.97 1015.40 1015.97 1016.54 1017.02 1017.33 1017.44 1017.35 1017.10 1016.76 1016.37 1015.99 1015.65 1015.35 1015.07 1014.77 1014.43 1013.99 1013.46 1012.82 1012.09 1011.30 1010.47 1009.63 1008.82 1008.05 1007.36 1006.75 1006.25 1005.87 1005.61 1005.49 1005.50 1005.65 1005.90
1021.30 1021.66 1021.89 1021.92 1021.67 1021.10 1020.24 1019.15 1017.94 1016.74 1015.69 1014.89 1014.41 1014.28 1014.45 1014.85 1015.37 1015.93 1016.40 1016.73 1016.88 1016.87 1016.73 1016.50 1016.23 1015.96 1015.71 1015.48 1015.25 1015.00 1014.69 1014.29 1013.79 1013.19 1012.51 1011.77 1010.99 1010.22 1009.46 1008.76 1008.12 1007.56 1007.10 1006.74 1006.50 1006.38 1006.38 1006.50 1006.73
Thickness
5669 5673 5676 5672 5658 5647 5656 5668 5679 5688 5694 5704 5709 5709 5706 5705 5705 5705 5720 5730 5733 5736 5738 5740 5740 5740 5739 5738 5738 5737 5737 5737 5737 5736 5736 5735 5735 5734 5734 5733 5732 5732 5731 5731 5730 5729 5728 5727 5726
5660 5664 5662 5654 5643 5638 5651 5666 5676 5686 5696 5700 5703 5703 5702 5701 5708 5712 5719 5725 5729 5732 5734 5735 5736 5736 5735 5735 5734 5734 5734 5734 5733 5733 5733 5732 5732 5731 5731 5730 5729 5729 5728 5728 5727 5726 5725 5724 5723
5652 5654 5647 5639 5636 5640 5655 5667 5674 5684 5692 5695 5693 5695 5696 5696 5703 5708 5714 5720 5724 5726 5728 5730 5731 5731 5731 5730 5730 5730 5730 5730 5730 5730 5729 5729 5729 5728 5728 5727 5726 5726 5725 5724 5723 5722 5721 5721 5720
5641 5638 5634 5630 5636 5644 5655 5666 5671 5678 5685 5688 5688 5685 5689 5694 5698 5703 5710 5714 5718 5720 5722 5724 5725 5726 5726 5726 5726 5726 5726 5727 5726 5726 5726 5726 5725 5725 5725 5724 5723 5722 5722 5721 5720 5719 5718 5717 5717
5629 5626 5621 5621 5632 5643 5652 5660 5668 5672 5676 5679 5680 5678 5681 5689 5694 5699 5704 5708 5710 5713 5715 5718 5719 5721 5721 5722 5722 5722 5722 5723 5723 5723 5723 5722 5722 5722 5721 5720 5720 5719 5718 5718 5717 5716 5714 5714 5713
5614 5615 5611 5615 5629 5640 5648 5654 5661 5665 5668 5672 5673 5671 5674 5683 5687 5691 5696 5700 5703 5706 5708 5710 5712 5714 5715 5716 5717 5717 5718 5719 5719 5719 5719 5719 5719 5718 5718 5717 5716 5716 5715 5714 5713 5713 5711 5710 5709
5606 5607 5608 5615 5623 5633 5642 5649 5653 5656 5660 5663 5667 5664 5669 5676 5680 5685 5689 5693 5696 5699 5701 5703 5705 5707 5709 5710 5711 5712 5713 5714 5714 5715 5715 5715 5715 5715 5714 5714 5713 5712 5712 5711 5710 5709 5708 5707 5706
5603 5602 5603 5607 5618 5627 5636 5643 5647 5650 5652 5659 5662 5659 5661 5669 5674 5678 5681 5684 5687 5690 5693 5696 5698 5700 5702 5704 5705 5707 5708 5709 5709 5710 5710 5710 5711 5710 5710 5710 5709 5709 5708 5707 5707 5706 5705 5704 5703
5600 5594 5596 5604 5614 5621 5630 5635 5640 5645 5647 5650 5653 5656 5659 5664 5667 5670 5672 5675 5678 5682 5685 5688 5690 5693 5695 5697 5699 5700 5702 5703 5704 5704 5705 5705 5706 5706 5706 5706 5705 5705 5704 5704 5703 5702 5701 5700 5699
5588 5585 5597 5605 5612 5617 5623 5627 5631 5636 5637 5639 5643 5647 5652 5656 5658 5660 5662 5664 5668 5672 5675 5679 5682 5685 5687 5690 5692 5693 5695 5696 5697 5698 5699 5700 5700 5700 5701 5701 5701 5700 5700 5699 5699 5698 5697 5696 5695
5584 5585 5593 5600 5607 5613 5617 5620 5625 5628 5627 5632 5635 5639 5643 5646 5648 5651 5653 5656 5659 5663 5667 5671 5674 5677 5680 5682 5684 5686 5688 5689 5691 5692 5693 5693 5694 5694 5695 5695 5695 5695 5695 5695 5694 5693 5692 5691 5690
5578 5582 5590 5595 5603 5607 5610 5614 5616 5619 5622 5627 5630 5633 5635 5636 5639 5642 5645 5649 5652 5656 5659 5663 5666 5669 5672 5675 5677 5679 5681 5682 5684 5685 5686 5687 5687 5688 5688 5689 5689 5689 5689 5689 5689 5688 5687 5686 5686
5574 5578 5585 5590 5595 5599 5603 5604 5607 5609 5614 5619 5622 5625 5626 5629 5631 5635 5638 5642 5645 5648 5652 5655 5659 5662 5664 5667 5670 5672 5673 5675 5677 5678 5679 5680 5681 5681 5682 5683 5683 5683 5683 5683 5683 5682 5681 5681 5680
5569 5573 5578 5583 5589 5592 5595 5597 5601 5603 5608 5612 5614 5616 5619 5621 5625 5628 5631 5635 5638 5641 5644 5648 5651 5654 5657 5659 5662 5664 5666 5668 5670 5671 5673 5673 5674 5675 5676 5676 5677 5677 5678 5678 5677 5677 5676 5676 5675
5566 5568 5572 5576 5582 5585 5590 5590 5592 5598 5602 5604 5606 5609 5612 5615 5618 5621 5624 5627 5630 5633 5636 5639 5643 5646 5649 5651 5654 5657 5659 5661 5663 5664 5666 5666 5667 5668 5669 5670 5670 5671 5672 5671 5671 5671 5670 5669 5669
5560 5558 5560 5569 5575 5579 5582 5581 5588 5591 5595 5596 5598 5602 5604 5608 5611 5614 5617 5620 5623 5625 5628 5632 5635 5638 5640 5643 5646 5649 5651 5653 5655 5657 5658 5659 5660 5661 5662 5663 5664 5665 5665 5665 5665 5664 5663 5663 5663
5544 5548 5554 5561 5568 5572 5574 5575 5583 5585 5587 5589 5592 5594 5597 5600 5604 5607 5610 5612 5615 5617 5620 5623 5626 5629 5632 5635 5638 5640 5643 5645 5647 5649 5650 5651 5652 5653 5654 5656 5657 5657 5658 5658 5658 5658 5657 5657 5656
5541 5544 5550 5554 5561 5565 5565 5568 5576 5579 5581 5582 5585 5587 5590 5594 5596 5600 5602 5605 5607 5609 5612 5614 5617 5620 5623 5625 5628 5631 5633 5636 5638 5639 5641 5643 5644 5645 5647 5648 5649 5650 5650 5650 5651 5651 5651 5651 5649
5542 5542 5543 5549 5556 5559 5558 5562 5570 5574 5575 5576 5578 5581 5584 5587 5590 5592 5594 5597 5599 5601 5603 5605 5608 5610 5612 5614 5616 5619 5622 5625 5627 5629 5631 5633 5634 5636 5637 5639 5640 5641 5642 5643 5643 5642 5642 5643 5641
5540 5539 5540 5546 5552 5554 5552 5557 5567 5571 5573 5574 5575 5576 5578 5580 5583 5585 5587 5588 5589 5591 5594 5596 5598 5600 5602 5604 5606 5608 5610 5613 5615 5618 5620 5622 5623 5625 5627 5628 5629 5630 5632 5633 5634 5634 5634 5634 5633
5536 5536 5539 5542 5545 5546 5548 5556 5564 5569 5569 5571 5571 5572 5573 5575 5575 5577 5579 5580 5581 5582 5584 5587 5589 5591 5592 5594 5596 5597 5600 5602 5604 5606 5607 5609 5611 5613 5615 5617 5618 5619 5621 5622 5624 5625 5625 5625 5624
5533 5538 5540 5540 5535 5531 5538 5536 5556 5561 5562 5566 5566 5565 5566 5568 5568 5569 5571 5573 5574 5575 5576 5578 5580 5582 5583 5584 5585 5586 5589 5591 5593 5593 5595 5597 5599 5601 5603 5606 5608 5609 5610 5611 5614 5615 5616 5615 5615
5533 5536 5535 5534 5531 5527 5529 5527 5546 5554 5560 5565 5564 5562 5562 5562 5562 5564 5565 5567 5568 5568 5569 5570 5572 5573 5575 5576 5577 5577 5578 5580 5582 5583 5584 5586 5587 5589 5592 5595 5596 5598 5599 5601 5602 5604 5605 5606 5606
5534 5532 5529 5522 5520 5523 5526 5522 5536 5545 5559 5564 5564 5561 5559 5558 5558 5558 5559 5560 5561 5561 5561 5562 5563 5565 5566 5567 5568 5569 5570 5571 5573 5574 5574 5575 5577 5579 5581 5583 5585 5587 5588 5590 5591 5593 5594 5595 5595
5528 5520 5511 5514 5508 5516 5522 5519 5534 5555 5558 5560 5561 5558 5555 5553 5552 5552 5553 5553 5553 5554 5554 5555 5556 5557 5559 5559 5560 5561 5562 5563 5564 5565 5565 5566 5568 5569 5570 5572 5574 5575 5576 5578 5579 5581 5582 5583 5583
5524 5520 5509 5511 5507 5507 5515 5516 5542 5557 5557 5555 5555 5554 5551 5549 5548 5547 5547 5547 5546 5547 5547 5548 5549 5550 5551 5552 5552 5553 5554 5555 5556 5557 5557 5557 5558 5559 5561 5562 5563 5565 5566 5567 5568 5569 5570 5571 5572
5525 5515 5514 5502 5499 5499 5511 5520 5540 5554 5553 5552 5551 5549 5547 5546 5545 5543 5543 5542 5541 5541 5541 5541 5542 5543 5544 5545 5545 5545 5546 5547 5548 5548 5548 5548 5550 5551 5552 5553 5554 5556 5556 5557 5558 5559 5559 5560 5560
5525 5515 5505 5503 5505 5506 5511 5516 5529 5549 5552 5552 5548 5546 5545 5543 5542 5540 5539 5537 5536 5536 5536 5535 5535 5536 5537 5538 5538 5540 5539 5540 5540 5540 5540 5541 5542 5542 5543 5544 5545 5547 5548 5548 5548 5549 5549 5549 5550
5519 5515 5509 5499 5499 5499 5503 5528 5545 5547 5551 5548 5547 5545 5543 5540 5538 5537 5535 5533 5532 5531 5530 5530 5530 5530 5531 5531 5532 5532 5532 5532 5532 5532 5533 5533 5534 5535 5535 5536 5537 5538 5539 5539 5539 5539 5539 5540 5540
5522 5518 5509 5505 5502 5493 5489 5525 5553 5548 5546 5544 5544 5544 5542 5539 5537 5534 5532 5529 5527 5526 5525 5524 5525 5525 5525 5526 5526 5526 5526 5525 5525 5525 5525 5526 5526 5527 5528 5528 5529 5530 5529 5529 5530 5530 5530 5530 5530